KA1WBH Fairhaven MA US current weather conditions

sailwx.info

Wind from 335 at 1 knots gusting 4

Air temperature 3.3° C
Dewpoint -2.0° C

Last reported at 2020-Jan-28 23:08 UTC.
Time now 2020-Jan-28 23:51 UTC

Location: N 41°36' W 070°50'.
View on Google Maps.

See reports from other nearby stations

  
Tides and Currents Weather Stations Pressure Air Temp Water Temp Dewpoint Dewpoint Depression Visibility Wind Speed Wind Dir Waves Ship Positions
date/time (UTC)wind fromknots sea level pressurealtimeterstation pressurevisibilityair tempwater tempwave heightnotes
2020-Jan-28 23:08 335 1 gusting 4 3.3
2020-Jan-28 22:58 335 3.9
2020-Jan-28 22:48 327 3.9
2020-Jan-28 22:38 329 3 gusting 4 3.9
2020-Jan-28 22:28 341 3 gusting 5 3.9
2020-Jan-28 22:18 328 3.9
2020-Jan-28 22:08 318 3.9
2020-Jan-28 21:58 335 2 gusting 6 3.9
2020-Jan-28 21:48 341 4 gusting 6 3.9
2020-Jan-28 21:38 343 3 gusting 5 3.9
2020-Jan-28 21:28 348 2 gusting 3 3.9
2020-Jan-28 21:18 340 3.9
2020-Jan-28 21:08 352 2 gusting 6 3.9
2020-Jan-28 20:58 335 3.9
2020-Jan-28 20:48 326 4 gusting 7 3.9
2020-Jan-28 20:38 351 3 gusting 6 3.9
2020-Jan-28 20:28 332 2 gusting 6 3.9
2020-Jan-28 20:18 327 5 gusting 8 3.9
2020-Jan-28 20:08 330 4.4
2020-Jan-28 19:58 349 3 gusting 7 3.9
2020-Jan-28 19:48 018 4 gusting 6 3.9
2020-Jan-28 19:38 347 5 gusting 5 3.9
2020-Jan-28 19:28 348 4 gusting 6 4.4
2020-Jan-28 19:18 332 4 gusting 7 4.4
2020-Jan-28 19:08 341 4 gusting 8 3.9
2020-Jan-28 18:58 008 7 gusting 7 3.9
2020-Jan-28 18:48 007 1 gusting 9 3.9
2020-Jan-28 18:38 345 5 gusting 9 3.9
2020-Jan-28 18:28 358 6 gusting 9 3.9
2020-Jan-28 18:18 002 9 gusting 9 3.9
2020-Jan-28 18:08 355 4 gusting 9 3.9
2020-Jan-28 17:58 360 6 gusting 9 3.9
2020-Jan-28 17:48 342 6 gusting 10 4.4
2020-Jan-28 17:38 337 6 gusting 11 4.4
2020-Jan-28 17:28 347 4 gusting 11 4.4
2020-Jan-28 17:18 325 2 gusting 12 4.4
2020-Jan-28 17:08 341 3 gusting 9 4.4
2020-Jan-28 16:58 336 2 gusting 10 4.4
2020-Jan-28 16:48 335 6 gusting 10 4.4
2020-Jan-28 16:38 358 6 gusting 11 4.4
2020-Jan-28 16:28 351 5 gusting 12 4.4
2020-Jan-28 16:18 015 7 gusting 11 4.4
2020-Jan-28 16:08 323 3 gusting 10 5.0
2020-Jan-28 15:58 334 6 gusting 12 5.0
2020-Jan-28 15:48 312 4 gusting 11 5.0
2020-Jan-28 15:38 342 8 gusting 14 5.6
2020-Jan-28 15:28 292 5 gusting 12 5.0
2020-Jan-28 15:18 334 6 gusting 13 5.0
2020-Jan-28 15:08 352 4 gusting 11 5.0
2020-Jan-28 14:58 343 6 gusting 13 5.0
2020-Jan-28 14:48 357 11 gusting 11 5.0
2020-Jan-28 14:38 306 4 gusting 11 4.4
2020-Jan-28 14:28 298 6 gusting 9 3.9
2020-Jan-28 14:18 325 4 gusting 9 3.9
2020-Jan-28 14:08 358 1 gusting 11 3.9
2020-Jan-28 13:58 343 3 gusting 8 3.9
2020-Jan-28 13:48 333 3.9
2020-Jan-28 13:38 336 1 gusting 7 3.3
2020-Jan-28 13:28 287 3 gusting 10 3.3
2020-Jan-28 13:18 308 6 gusting 9 3.3
2020-Jan-28 13:08 320 2 gusting 8 3.3
2020-Jan-28 12:58 318 2 gusting 6 3.3
2020-Jan-28 12:48 343 1 gusting 8 3.3
2020-Jan-28 12:38 333 1 gusting 8 3.3
2020-Jan-28 12:28 335 3 gusting 6 3.3
2020-Jan-28 12:18 331 6 gusting 9 3.3
2020-Jan-28 12:08 330 3 gusting 9 3.3
2020-Jan-28 11:58 320 3 gusting 9 3.3
2020-Jan-28 11:48 329 0 gusting 9 3.3
2020-Jan-28 11:38 312 3.3
2020-Jan-28 11:28 285 3 gusting 6 3.3
2020-Jan-28 11:18 314 1 gusting 9 3.3
2020-Jan-28 11:08 322 9 gusting 11 3.3
2020-Jan-28 10:58 282 4 gusting 10 3.3
2020-Jan-28 10:48 286 1 gusting 9 3.3
2020-Jan-28 10:38 295 7 gusting 10 3.3
2020-Jan-28 10:28 304 4 gusting 9 3.3
2020-Jan-28 10:18 324 3 gusting 10 3.3
2020-Jan-28 10:08 312 6 gusting 8 3.3
2020-Jan-28 09:58 314 2 gusting 9 3.9
2020-Jan-28 09:48 313 2 gusting 7 3.9
2020-Jan-28 09:38 312 4 gusting 13 3.9
2020-Jan-28 09:28 320 3 gusting 8 3.9
2020-Jan-28 09:18 300 2 gusting 9 3.9
2020-Jan-28 09:08 311 1 gusting 8 3.9
2020-Jan-28 08:58 329 1 gusting 8 3.9
2020-Jan-28 08:48 322 3 gusting 9 3.9
2020-Jan-28 08:38 281 4 gusting 10 3.9
2020-Jan-28 08:28 320 0 gusting 7 3.9
2020-Jan-28 08:18 314 2 gusting 7 3.9
2020-Jan-28 08:08 314 6 gusting 8 3.9
2020-Jan-28 07:58 285 0 gusting 6 3.9
2020-Jan-28 07:48 297 2 gusting 9 3.9
2020-Jan-28 07:38 318 1 gusting 8 3.9
2020-Jan-28 07:28 308 6 gusting 9 3.9
2020-Jan-28 07:18 291 2 gusting 8 3.9
2020-Jan-28 07:08 291 6 gusting 8 3.9
2020-Jan-28 06:58 324 8 gusting 8 3.9
2020-Jan-28 06:48 297 1 gusting 6 3.9
2020-Jan-28 06:38 312 3.9
2020-Jan-28 06:28 313 3.3
2020-Jan-28 06:18 326 3.9
2020-Jan-28 06:08 278 0 gusting 7 3.9
2020-Jan-28 05:58 299 1 gusting 6 3.9
2020-Jan-28 05:48 290 1 gusting 7 3.9
2020-Jan-28 05:38 307 3.9
2020-Jan-28 05:28 283 8 gusting 9 4.4
2020-Jan-28 05:18 280 5 gusting 7 4.4
2020-Jan-28 05:08 297 2 gusting 9 4.4
2020-Jan-28 04:58 308 4 gusting 9 4.4
2020-Jan-28 04:48 306 3 gusting 7 4.4
2020-Jan-28 04:38 291 6 gusting 10 4.4
2020-Jan-28 04:28 316 2 gusting 7 4.4
2020-Jan-28 04:18 297 3 gusting 8 4.4
2020-Jan-28 04:08 285 0 gusting 8 4.4
2020-Jan-28 03:58 297 1 gusting 9 5.0
2020-Jan-28 03:48 269 1 gusting 11 5.0
2020-Jan-28 03:38 335 1 gusting 8 5.0
2020-Jan-28 03:28 291 3 gusting 9 5.0
2020-Jan-28 03:18 266 9 gusting 9 5.0
2020-Jan-28 03:08 288 0 gusting 8 5.0
2020-Jan-28 02:58 296 3 gusting 9 4.4
2020-Jan-28 02:48 309 5 gusting 7 4.4
2020-Jan-28 02:38 258 0 gusting 7 4.4
2020-Jan-28 02:28 299 1 gusting 6 4.4
2020-Jan-28 02:18 292 4 gusting 6 4.4
2020-Jan-28 02:08 289 3 gusting 4 4.4
2020-Jan-28 01:58 298 3 gusting 6 4.4
2020-Jan-28 01:48 288 2 gusting 6 4.4
2020-Jan-28 01:38 254 6 gusting 6 4.4
2020-Jan-28 01:28 292 3 gusting 6 4.4
2020-Jan-28 01:18 299 0 gusting 7 4.4
2020-Jan-28 01:08 288 4.4
2020-Jan-28 00:58 266 4.4
2020-Jan-28 00:48 287 2 gusting 7 5.0
2020-Jan-28 00:38 281 1 gusting 8 5.0
2020-Jan-28 00:28 266 0 gusting 9 5.0
2020-Jan-28 00:18 285 4 gusting 8 5.0
2020-Jan-28 00:08 289 6 gusting 9 5.0
2020-Jan-27 23:58 302 0 gusting 6 5.6
2020-Jan-27 23:48 277 6 gusting 7 5.6
2020-Jan-27 23:38 272 2 gusting 6 5.6
2020-Jan-27 23:28 293 2 gusting 8 5.6
2020-Jan-27 23:18 294 3 gusting 8 5.6
2020-Jan-27 23:08 273 1 gusting 9 6.1
2020-Jan-27 22:58 310 7 gusting 11 6.1
2020-Jan-27 22:48 290 2 gusting 8 6.1
2020-Jan-27 22:38 266 3 gusting 9 6.1
2020-Jan-27 22:28 319 4 gusting 10 6.1
2020-Jan-27 22:18 295 0 gusting 8 6.1
2020-Jan-27 22:08 275 4 gusting 7 6.1
2020-Jan-27 21:58 281 5 gusting 6 6.1
2020-Jan-27 21:48 297 1 gusting 9 6.1
2020-Jan-27 21:38 297 8 gusting 11 6.7
2020-Jan-27 21:28 292 4 gusting 10 6.7
2020-Jan-27 21:18 297 5 gusting 13 6.7
2020-Jan-27 21:08 291 3 gusting 10 6.7
2020-Jan-27 20:58 286 10 gusting 11 6.7
2020-Jan-27 20:48 279 2 gusting 10 6.7
2020-Jan-27 20:38 263 3 gusting 7 6.7
2020-Jan-27 20:28 275 3 gusting 8 6.7
2020-Jan-27 20:18 287 4 gusting 12 6.7
2020-Jan-27 20:08 289 2 gusting 12 7.2
2020-Jan-27 19:58 260 5 gusting 13 7.2
2020-Jan-27 19:48 256 7 gusting 14 7.2
2020-Jan-27 19:38 283 8 gusting 18 7.2
2020-Jan-27 19:28 272 7 gusting 14 7.2
2020-Jan-27 19:18 254 10 gusting 13 6.7
2020-Jan-27 19:08 282 12 gusting 17 6.7
2020-Jan-27 18:58 288 1 gusting 14 7.2
2020-Jan-27 18:48 314 5 gusting 14 7.8
2020-Jan-27 18:38 264 10 gusting 13 7.8
2020-Jan-27 18:28 264 5 gusting 14 7.2
2020-Jan-27 18:18 277 14 gusting 14 7.2
2020-Jan-27 18:08 282 5 gusting 15 7.2
2020-Jan-27 17:58 292 6 gusting 13 6.7
2020-Jan-27 17:48 293 13 gusting 13 6.7
2020-Jan-27 17:38 281 7 gusting 12 6.7
2020-Jan-27 17:28 284 5 gusting 12 6.1
2020-Jan-27 17:18 266 7 gusting 12 6.1
2020-Jan-27 17:08 256 10 gusting 11 6.1
2020-Jan-27 16:58 305 7 gusting 9 6.1
2020-Jan-27 16:48 208 2 gusting 10 6.1
2020-Jan-27 16:38 272 2 gusting 9 5.6
2020-Jan-27 16:28 266 6 gusting 10 5.6
2020-Jan-27 16:18 248 0 gusting 9 5.6
2020-Jan-27 16:08 256 8 gusting 10 5.6
2020-Jan-27 15:58 268 2 gusting 10 5.6
2020-Jan-27 15:48 262 9 gusting 12 5.0
2020-Jan-27 15:38 250 6 gusting 14 5.0
2020-Jan-27 15:28 262 9 gusting 13 5.0
2020-Jan-27 15:08 267 7 gusting 13 4.4
2020-Jan-27 14:58 252 5 gusting 10 4.4
2020-Jan-27 14:48 266 6 gusting 8 4.4
2020-Jan-27 14:38 289 4 gusting 11 4.4
2020-Jan-27 14:28 254 8 gusting 8 4.4
2020-Jan-27 14:18 256 5 gusting 9 3.9
2020-Jan-27 14:08 247 2 gusting 10 3.9
2020-Jan-27 13:58 258 1 gusting 8 3.9
2020-Jan-27 13:48 239 3 gusting 9 3.3
2020-Jan-27 13:38 257 2 gusting 10 3.3
2020-Jan-27 13:28 257 7 gusting 9 3.3
2020-Jan-27 13:18 254 6 gusting 9 3.3
2020-Jan-27 13:08 260 3 gusting 11 3.3
2020-Jan-27 12:58 272 8 gusting 13 3.3
2020-Jan-27 12:48 252 6 gusting 11 2.8
2020-Jan-27 12:38 255 4 gusting 10 2.8
2020-Jan-27 12:28 247 7 gusting 9 2.8
2020-Jan-27 12:18 242 8 gusting 10 2.8
2020-Jan-27 12:08 259 3 gusting 12 2.8
2020-Jan-27 11:58 261 9 gusting 11 2.8
2020-Jan-27 11:48 255 8 gusting 13 2.8
2020-Jan-27 11:38 248 7 gusting 10 2.8
2020-Jan-27 11:28 248 6 gusting 10 2.8
2020-Jan-27 11:18 250 7 gusting 9 2.8
2020-Jan-27 11:08 246 9 gusting 11 2.8
2020-Jan-27 10:58 248 7 gusting 11 2.8
2020-Jan-27 10:48 256 6 gusting 15 2.8
2020-Jan-27 10:38 257 9 gusting 13 3.3
2020-Jan-27 10:28 258 8 gusting 16 3.3
2020-Jan-27 10:18 259 9 gusting 13 2.8
2020-Jan-27 10:08 282 6 gusting 13 2.8
2020-Jan-27 09:58 244 10 gusting 13 3.3
2020-Jan-27 09:48 248 9 gusting 12 3.3
2020-Jan-27 09:38 254 3 gusting 14 3.3
2020-Jan-27 09:28 245 7 gusting 12 3.3
2020-Jan-27 09:18 264 11 gusting 11 2.8
2020-Jan-27 09:08 247 2 gusting 7 2.8
2020-Jan-27 08:58 252 2 gusting 8 2.8
2020-Jan-27 08:48 226 2 gusting 6 2.2
2020-Jan-27 08:38 244 0 gusting 7 1.7
2020-Jan-27 08:28 250 1 gusting 3 1.7
2020-Jan-27 08:18 251 2.2
2020-Jan-27 08:08 251 2.2
2020-Jan-27 07:58 250 2.2
2020-Jan-27 07:48 251 2.2
2020-Jan-27 07:38 252 1 gusting 7 2.8
2020-Jan-27 07:28 262 3 gusting 5 2.8
2020-Jan-27 07:18 258 2 gusting 3 2.8
2020-Jan-27 07:08 260 0 gusting 3 2.8
2020-Jan-27 06:58 261 1 gusting 5 3.3
2020-Jan-27 06:48 255 0 gusting 5 3.3
2020-Jan-27 06:38 252 2 gusting 5 3.3
2020-Jan-27 06:28 256 1 gusting 5 3.3
2020-Jan-27 06:18 267 2 gusting 6 3.3
2020-Jan-27 06:08 275 3 gusting 6 3.9
2020-Jan-27 05:58 267 3 gusting 6 3.9
2020-Jan-27 05:48 268 5 gusting 8 3.9
2020-Jan-27 05:38 289 3 gusting 7 3.9
2020-Jan-27 05:28 247 3 gusting 7 3.9
2020-Jan-27 05:18 269 5 gusting 9 3.9
2020-Jan-27 05:08 270 5 gusting 10 3.9
2020-Jan-27 04:58 264 5 gusting 8 4.4
2020-Jan-27 04:48 259 2 gusting 9 4.4
2020-Jan-27 04:38 251 6 gusting 11 4.4
2020-Jan-27 04:28 266 4 gusting 13 4.4
2020-Jan-27 04:18 258 6 gusting 13 3.9
2020-Jan-27 04:08 271 4 gusting 11 3.9
2020-Jan-27 03:58 247 6 gusting 9 3.9
2020-Jan-27 03:48 260 6 gusting 12 3.9
2020-Jan-27 03:38 256 4 gusting 10 3.9
2020-Jan-27 03:28 272 6 gusting 9 3.9
2020-Jan-27 03:18 043 6 gusting 11 4.4
2020-Jan-27 03:08 274 7 gusting 9 4.4
2020-Jan-27 02:58 266 8 gusting 9 3.9
2020-Jan-27 02:48 276 7 gusting 10 3.9
2020-Jan-27 02:38 258 5 gusting 12 3.9
2020-Jan-27 02:28 265 4 gusting 11 3.9
2020-Jan-27 02:18 263 6 gusting 11 3.9
2020-Jan-27 02:08 253 5 gusting 10 4.4
2020-Jan-27 01:58 256 5 gusting 7 4.4
2020-Jan-27 01:48 262 2 gusting 8 4.4
2020-Jan-27 01:38 256 3 gusting 8 4.4
2020-Jan-27 01:28 252 5 gusting 8 4.4
2020-Jan-27 01:18 245 4 gusting 6 4.4
2020-Jan-27 01:08 260 2 gusting 6 4.4
2020-Jan-27 00:58 283 1 gusting 3 4.4
2020-Jan-27 00:48 276 2 gusting 4 4.4
2020-Jan-27 00:38 269 1 gusting 7 4.4
2020-Jan-27 00:28 264 3 gusting 6 4.4
2020-Jan-27 00:18 279 5 gusting 5 5.0
2020-Jan-27 00:08 266 5 gusting 5 5.0
2020-Jan-26 23:58 255 3 gusting 7 5.0
2020-Jan-26 23:48 264 3 gusting 6 5.0
2020-Jan-26 23:38 261 2 gusting 5 5.6
2020-Jan-26 23:28 264 3 gusting 5 5.6
2020-Jan-26 23:18 270 0 gusting 3 5.6
2020-Jan-26 23:08 279 1 gusting 5 5.6